GFSGBSN_prec_snow_204.txt.gz
Snowfall_Accumulation
0.0 0.0 0.0 0.0 0.0 0.0 0.0 0.0 0.0 0.0 0.0 0.0 0.0 0.0 0.0 0.0 0.0 0.0 0.0 0.0 0.0 0.0 0.0 0.0 0.0 0.0 0.0 0.0 0.0 0.0 0.0 0.0 0.0 0.0 0.0 0.0 0.0 0.0 0.0 0.0 0.0 0.0 0.0 0.0 0.0 0.0 0.0
0.0 0.0 0.0 0.0 0.0 0.0 0.0 0.0 0.0 0.0 0.0 0.0 0.0 0.0 0.0 0.0 0.0 0.0 0.0 0.0 0.0 0.0 0.0 0.0 0.0 0.0 0.0 0.0 0.0 0.0 0.0 0.0 0.0 0.0 0.0 0.0 0.0 0.0 0.0 0.0 0.0 0.0 0.0 0.0 0.0 0.0 0.0
0.0 0.0 0.0 0.0 0.0 0.0 0.0 0.0 0.0 0.0 0.0 0.0 0.0 0.0 0.0 0.0 0.0 0.0 0.0 0.0 0.0 0.0 0.0 0.0 0.0 0.0 0.0 0.0 0.0 0.0 0.0 0.0 0.0 0.0 0.0 0.0 0.0 0.0 0.0 0.0 0.0 0.0 0.0 0.0 0.0 0.0 0.0
0.0 0.0 0.0 0.0 0.0 0.0 0.0 0.0 0.0 0.0 0.0 0.0 0.0 0.0 0.0 0.0 0.0 0.0 0.0 0.0 0.0 0.0 0.0 0.0 0.0 0.0 0.0 0.0 0.0 0.0 0.0 0.0 0.0 0.0 0.0 0.0 0.0 0.0 0.0 0.0 0.0 0.0 0.0 0.0 0.0 0.0 0.0
0.0 0.0 0.0 0.0 0.0 0.0 0.0 0.0 0.0 0.0 0.0 0.0 0.0 0.0 0.0 0.0 0.0 0.0 0.0 0.0 0.0 0.0 0.0 0.0 0.0 0.0 0.0 0.0 0.0 0.0 0.0 0.0 0.0 0.0 0.0 0.0 0.0 0.0 0.0 0.0 0.0 0.0 0.0 0.0 0.0 0.0 0.0
0.0 0.0 0.0 0.0 0.0 0.0 0.0 0.0 0.0 0.0 0.0 0.0 0.0 0.0 0.0 0.0 0.0 0.0 0.0 0.0 0.0 0.0 0.0 0.0 0.0 0.1 0.0 0.0 0.0 0.0 0.0 0.0 0.0 0.0 0.0 0.0 0.0 0.0 0.0 0.0 0.0 0.0 0.0 0.0 0.0 0.0 0.0
0.0 0.0 0.0 0.0 0.0 0.0 0.0 0.0 0.0 0.0 0.0 0.0 0.0 0.0 0.0 0.0 0.0 0.0 0.0 0.0 0.0 0.0 0.0 0.0 0.0 0.0 0.0 0.0 0.0 0.0 0.0 0.0 0.0 0.0 0.0 0.0 0.0 0.0 0.0 0.0 0.0 0.0 0.0 0.0 0.0 0.0 0.0
0.0 0.0 0.0 0.0 0.0 0.0 0.0 0.0 0.0 0.0 0.0 0.0 0.0 0.0 0.0 0.0 0.0 0.0 0.0 0.0 0.0 0.0 0.7 0.0 0.0 0.0 0.0 0.0 0.0 0.0 0.0 0.0 0.0 0.0 0.0 0.0 0.2 0.0 0.0 0.0 0.0 0.0 0.2 0.0 0.0 0.0 0.0
0.0 0.0 0.0 0.0 0.0 0.0 0.0 0.0 0.0 0.0 0.0 0.0 0.0 0.0 0.0 0.0 0.0 0.0 0.0 0.0 0.0 0.0 1.6 0.0 0.0 0.0 0.0 0.0 0.0 0.0 0.0 0.0 0.0 0.0 0.0 0.3 0.0 0.0 0.0 0.0 0.0 0.0 0.0 0.0 0.0 0.0 0.0
0.0 0.0 0.0 0.0 0.0 0.0 0.0 0.0 0.0 0.0 0.0 0.0 0.0 0.0 0.0 0.0 0.0 0.0 0.0 0.0 0.0 0.0 3.6 0.0 0.0 0.0 0.0 0.0 0.0 0.0 0.0 0.0 0.0 0.0 0.6 0.7 0.0 0.2 0.0 0.0 0.0 0.4 0.0 0.0 0.1 0.6 0.9
0.0 0.0 0.0 0.0 0.0 0.0 0.0 0.0 0.0 0.0 0.0 0.0 0.0 0.0 0.0 0.0 0.0 0.0 0.0 0.0 0.0 0.0 4.6 0.0 0.0 0.0 0.0 0.0 0.0 0.0 0.0 0.0 0.0 0.0 1.4 1.6 0.0 2.2 0.8 0.0 0.0 0.2 0.0 0.0 0.0 0.1 0.2
0.0 0.0 0.0 0.0 0.0 0.0 0.0 0.0 0.0 0.0 0.0 0.0 0.0 0.0 0.0 0.0 0.0 0.0 0.0 0.0 0.0 5.9 3.4 0.0 0.1 1.0 0.0 0.0 0.0 0.0 0.0 0.0 0.0 0.0 0.0 0.3 0.0 0.0 0.0 0.0 0.0 0.0 0.0 0.0 0.0 0.4 1.8
0.0 0.0 0.0 0.0 0.0 0.0 0.0 0.0 0.0 0.0 0.0 0.0 0.0 0.0 0.0 0.0 0.0 0.0 0.0 0.0 6.1 4.6 0.0 0.2 0.3 2.4 1.2 0.7 1.6 0.0 0.0 0.0 0.0 0.3 0.4 0.0 0.0 0.0 0.0 0.0 0.0 0.4 0.2 0.9 2.1 1.8 0.4
0.0 0.0 0.0 0.0 0.0 0.0 0.0 0.0 0.0 0.0 0.0 0.0 0.0 0.0 0.0 0.0 0.0 0.0 0.0 4.2 7.8 1.4 0.1 0.0 0.6 2.2 1.6 1.6 2.1 0.0 0.0 0.0 0.0 0.0 0.0 0.4 1.7 0.0 0.0 0.0 0.8 0.0 0.1 0.0 2.9 1.5 1.0
0.0 0.0 0.0 0.0 0.0 0.0 0.0 0.0 0.0 0.0 0.0 0.0 0.0 0.0 0.0 0.0 0.0 0.0 0.5 9.5 1.7 1.4 0.0 0.0 0.0 0.7 1.0 0.8 4.0 5.1 3.7 0.5 0.0 0.0 1.9 1.2 1.4 0.0 0.0 0.0 0.0 0.2 0.6 0.0 1.6 1.5 2.2
0.0 0.0 0.0 0.0 0.0 0.0 0.0 0.0 0.0 0.0 0.0 0.0 0.0 0.0 0.0 0.0 0.0 0.0 8.5 5.8 0.0 0.1 0.0 0.0 0.0 0.1 1.0 0.8 1.2 6.9 3.1 1.6 0.1 0.0 0.0 0.7 0.9 0.0 0.0 0.0 0.0 0.0 0.0 0.3 0.9 4.2 2.9
0.0 0.0 0.0 0.0 0.0 0.0 0.0 0.0 0.0 0.0 0.0 0.0 0.0 1.9 0.0 0.0 0.0 0.0 14.5 2.1 0.0 0.0 0.0 0.0 0.1 0.4 0.1 0.5 0.4 3.4 3.4 2.0 0.0 0.0 0.0 0.0 1.3 0.3 0.0 2.0 0.0 0.3 0.4 0.7 1.6 1.8 3.6
0.0 0.0 0.0 0.0 0.0 0.0 0.0 0.0 0.0 0.0 0.0 0.0 0.0 14.1 0.0 0.0 11.8 11.8 4.7 0.2 0.0 0.0 0.0 0.2 0.0 0.0 1.0 1.3 0.5 0.2 1.9 0.5 0.0 0.0 0.7 0.0 0.2 0.8 0.0 0.0 0.0 0.0 0.2 0.3 3.2 2.6 3.5
0.0 0.0 0.0 0.0 0.0 0.0 0.0 0.0 0.0 0.0 0.0 0.0 4.2 5.1 0.0 0.0 13.0 6.2 0.7 0.9 0.0 0.0 0.0 0.2 0.6 0.4 0.0 1.3 0.6 1.5 0.7 0.0 0.0 0.0 1.2 0.0 1.3 1.2 0.8 0.0 0.0 0.1 0.2 1.0 2.1 2.1 4.2
0.0 0.0 0.0 0.0 0.0 0.0 0.0 0.0 0.0 0.0 0.0 0.0 0.1 30.7 0.0 0.0 0.9 1.7 2.2 1.5 2.1 0.0 0.0 0.0 0.1 0.0 0.1 0.3 0.2 0.2 1.4 0.0 0.0 0.0 0.0 0.0 0.9 4.5 4.8 5.7 3.5 1.3 0.2 0.2 0.7 4.8 7.2
0.0 0.0 0.0 0.0 0.0 0.0 0.0 0.0 0.0 0.0 0.0 0.0 11.8 20.7 0.0 26.2 14.1 1.2 1.6 1.6 1.9 2.5 0.0 0.0 0.8 0.4 0.5 2.2 1.3 2.6 1.3 1.3 0.0 0.0 0.0 0.0 1.7 1.2 0.2 0.8 6.1 4.1 0.7 0.6 1.9 0.9 3.0
0.0 0.0 0.0 0.0 0.0 0.0 0.0 0.0 0.0 0.0 0.0 0.0 44.8 10.8 1.4 0.9 0.2 3.7 3.1 2.5 0.6 1.8 2.7 2.2 1.6 0.2 0.9 2.0 1.7 1.6 1.8 1.4 1.1 0.0 0.0 0.0 3.6 0.7 0.2 0.2 2.6 2.9 0.5 0.3 0.6 1.3 2.9
0.0 0.0 0.0 0.0 0.0 0.0 0.0 0.0 0.0 0.0 0.0 0.0 0.0 0.0 0.0 2.7 4.6 9.1 5.3 2.3 1.9 0.3 0.0 0.1 0.0 3.0 2.7 1.2 0.0 0.0 0.0 0.0 0.0 0.4 1.0 2.0 4.7 6.8 3.8 0.2 5.6 8.1 7.3 4.9 2.4 2.1 2.4
0.0 0.0 0.0 0.0 0.0 0.0 0.0 0.0 0.0 0.0 0.0 0.0 0.0 0.0 10.9 15.2 3.8 3.6 0.4 0.2 1.5 1.6 1.9 0.0 0.0 3.0 0.0 0.0 0.0 0.0 0.0 0.0 0.0 0.0 0.0 1.9 4.8 8.1 5.4 4.4 12.6 7.3 4.8 5.9 8.6 5.6 6.7
0.0 0.0 0.0 0.0 0.0 0.0 0.0 0.0 0.0 0.0 0.0 0.0 0.0 0.0 0.6 12.6 4.6 6.6 3.8 3.1 1.8 2.3 4.4 2.5 0.0 0.0 0.0 0.0 4.6 2.7 3.3 1.9 1.0 0.0 0.0 0.0 2.0 11.3 10.6 8.1 4.5 1.4 0.0 0.8 2.2 2.6 1.9
0.0 0.0 0.0 0.0 0.0 0.0 0.0 0.0 0.0 0.0 0.0 0.0 0.0 0.0 0.5 13.4 7.9 0.0 4.0 3.5 5.2 5.6 5.6 4.4 0.0 0.0 0.0 6.2 7.5 7.7 3.1 1.9 2.1 2.8 0.0 0.0 0.3 7.0 9.2 10.5 5.5 1.8 0.0 0.0 0.7 5.1 2.5
0.0 0.0 0.0 0.0 0.0 0.0 0.0 0.0 0.0 0.0 0.0 0.0 0.0 0.0 0.0 22.1 0.0 0.0 1.8 3.9 0.0 2.0 4.5 2.8 1.0 0.0 0.0 8.8 8.1 5.2 2.7 0.6 2.1 4.7 3.7 2.4 4.8 6.8 5.2 11.8 4.1 0.0 0.0 0.0 7.2 8.8 0.5
0.0 0.0 0.0 0.0 0.0 0.0 0.0 0.0 0.0 0.0 0.0 0.0 0.0 0.0 0.0 15.9 3.2 0.0 0.0 1.1 1.2 0.7 5.4 3.0 5.0 5.0 6.1 7.5 8.9 6.4 4.3 1.8 1.7 3.4 7.4 3.8 7.0 6.9 9.2 10.4 6.3 0.0 0.0 2.4 2.7 0.6 0.6
0.0 0.0 0.0 0.0 0.0 0.0 0.0 0.0 0.0 0.0 0.0 0.0 0.0 0.0 0.0 2.3 5.7 0.0 0.0 0.0 0.0 0.0 0.0 0.1 1.7 1.6 2.4 7.1 5.2 5.2 6.5 4.9 4.2 5.1 0.0 9.4 4.3 8.7 6.5 7.9 2.0 0.3 1.5 1.2 0.6 0.3 0.5

GFSGBSN_prec_snow_207.txt.gz
Snowfall_Accumulation
0.0 0.0 0.0 0.0 0.0 0.0 0.0 0.0 0.0 0.0 0.0 0.0 0.0 0.0 0.0 0.0 0.0 0.0 0.0 0.0 0.0 0.0 0.0 0.0 0.0 0.0 0.0 0.0 0.0 0.0 0.0 0.0 0.0 0.0 0.0 0.0 0.0 0.0 0.0 0.0 0.0 0.0 0.0 0.0 0.0 0.0 0.0
0.0 0.0 0.0 0.0 0.0 0.0 0.0 0.0 0.0 0.0 0.0 0.0 0.0 0.0 0.0 0.0 0.0 0.0 0.0 0.0 0.0 0.0 0.0 0.0 0.0 0.0 0.0 0.0 0.0 0.0 0.0 0.0 0.0 0.0 0.0 0.0 0.0 0.0 0.0 0.0 0.0 0.0 0.0 0.0 0.0 0.0 0.0
0.0 0.0 0.0 0.0 0.0 0.0 0.0 0.0 0.0 0.0 0.0 0.0 0.0 0.0 0.0 0.0 0.0 0.0 0.0 0.0 0.0 0.0 0.0 0.0 0.0 0.0 0.0 0.0 0.0 0.0 0.0 0.0 0.0 0.0 0.0 0.0 0.0 0.0 0.0 0.0 0.0 0.0 0.0 0.0 0.0 0.0 0.0
0.0 0.0 0.0 0.0 0.0 0.0 0.0 0.0 0.0 0.0 0.0 0.0 0.0 0.0 0.0 0.0 0.0 0.0 0.0 0.0 0.0 0.0 0.0 0.0 0.0 0.0 0.0 0.0 0.0 0.0 0.0 0.0 0.0 0.0 0.0 0.0 0.0 0.0 0.0 0.0 0.0 0.0 0.0 0.0 0.0 0.0 0.0
0.0 0.0 0.0 0.0 0.0 0.0 0.0 0.0 0.0 0.0 0.0 0.0 0.0 0.0 0.0 0.0 0.0 0.0 0.0 0.0 0.0 0.0 0.0 0.0 0.0 0.0 0.0 0.0 0.0 0.0 0.0 0.0 0.0 0.0 0.0 0.0 0.0 0.0 0.0 0.0 0.0 0.0 0.0 0.0 0.0 0.0 0.0
0.0 0.0 0.0 0.0 0.0 0.0 0.0 0.0 0.0 0.0 0.0 0.0 0.0 0.0 0.0 0.0 0.0 0.0 0.0 0.0 0.0 0.0 0.0 0.0 0.0 0.1 0.0 0.0 0.0 0.0 0.0 0.0 0.0 0.0 0.0 0.0 0.0 0.0 0.0 0.0 0.0 0.0 0.0 0.0 0.0 0.0 0.0
0.0 0.0 0.0 0.0 0.0 0.0 0.0 0.0 0.0 0.0 0.0 0.0 0.0 0.0 0.0 0.0 0.0 0.0 0.0 0.0 0.0 0.0 0.0 0.0 0.0 0.0 0.0 0.0 0.0 0.0 0.0 0.0 0.0 0.0 0.0 0.0 0.0 0.0 0.0 0.0 0.0 0.0 0.0 0.0 0.0 0.0 0.0
0.0 0.0 0.0 0.0 0.0 0.0 0.0 0.0 0.0 0.0 0.0 0.0 0.0 0.0 0.0 0.0 0.0 0.0 0.0 0.0 0.0 0.0 0.7 0.0 0.0 0.0 0.0 0.0 0.0 0.0 0.0 0.0 0.0 0.0 0.0 0.0 0.2 0.0 0.0 0.0 0.0 0.0 0.2 0.0 0.0 0.0 0.0
0.0 0.0 0.0 0.0 0.0 0.0 0.0 0.0 0.0 0.0 0.0 0.0 0.0 0.0 0.0 0.0 0.0 0.0 0.0 0.0 0.0 0.0 1.6 0.0 0.0 0.0 0.0 0.0 0.0 0.0 0.0 0.0 0.0 0.0 0.0 0.3 0.0 0.0 0.0 0.0 0.0 0.0 0.0 0.0 0.0 0.0 0.0
0.0 0.0 0.0 0.0 0.0 0.0 0.0 0.0 0.0 0.0 0.0 0.0 0.0 0.0 0.0 0.0 0.0 0.0 0.0 0.0 0.0 0.0 3.6 0.0 0.0 0.0 0.0 0.0 0.0 0.0 0.0 0.0 0.0 0.0 0.6 0.7 0.0 0.2 0.0 0.0 0.0 0.4 0.0 0.0 0.1 0.6 0.9
0.0 0.0 0.0 0.0 0.0 0.0 0.0 0.0 0.0 0.0 0.0 0.0 0.0 0.0 0.0 0.0 0.0 0.0 0.0 0.0 0.0 0.0 4.7 0.0 0.0 0.0 0.0 0.0 0.0 0.0 0.0 0.0 0.0 0.0 1.4 1.6 0.0 2.2 0.8 0.0 0.0 0.2 0.0 0.0 0.0 0.1 0.2
0.0 0.0 0.0 0.0 0.0 0.0 0.0 0.0 0.0 0.0 0.0 0.0 0.0 0.0 0.0 0.0 0.0 0.0 0.0 0.0 0.0 5.9 3.4 0.0 0.1 1.0 0.0 0.0 0.0 0.0 0.0 0.0 0.0 0.0 0.0 0.3 0.0 0.0 0.0 0.0 0.0 0.0 0.0 0.0 0.0 0.4 1.8
0.0 0.0 0.0 0.0 0.0 0.0 0.0 0.0 0.0 0.0 0.0 0.0 0.0 0.0 0.0 0.0 0.0 0.0 0.0 0.0 6.1 4.6 0.0 0.2 0.3 2.4 1.2 0.7 1.6 0.0 0.0 0.0 0.0 0.3 0.4 0.0 0.0 0.0 0.0 0.0 0.0 0.4 0.2 0.9 2.1 1.8 0.4
0.0 0.0 0.0 0.0 0.0 0.0 0.0 0.0 0.0 0.0 0.0 0.0 0.0 0.0 0.0 0.0 0.0 0.0 0.0 4.2 7.8 1.4 0.1 0.0 0.6 2.2 1.6 1.6 2.1 0.0 0.0 0.0 0.0 0.0 0.0 0.4 1.7 0.0 0.0 0.0 0.8 0.0 0.1 0.0 2.9 1.5 1.0
0.0 0.0 0.0 0.0 0.0 0.0 0.0 0.0 0.0 0.0 0.0 0.0 0.0 0.0 0.0 0.0 0.0 0.0 0.5 9.5 1.7 1.4 0.0 0.0 0.0 0.7 1.0 0.8 4.0 5.1 3.7 0.5 0.0 0.0 1.9 1.2 1.4 0.0 0.0 0.0 0.0 0.2 0.6 0.0 1.6 1.5 2.2
0.0 0.0 0.0 0.0 0.0 0.0 0.0 0.0 0.0 0.0 0.0 0.0 0.0 0.0 0.0 0.0 0.0 0.0 8.5 5.8 0.0 0.1 0.0 0.0 0.0 0.1 1.0 0.8 1.2 6.9 3.1 1.6 0.1 0.0 0.0 0.7 0.9 0.0 0.0 0.0 0.0 0.0 0.0 0.3 0.9 4.2 2.9
0.0 0.0 0.0 0.0 0.0 0.0 0.0 0.0 0.0 0.0 0.0 0.0 0.0 1.9 0.0 0.0 0.0 0.0 14.5 2.1 0.0 0.0 0.0 0.0 0.1 0.4 0.1 0.5 0.4 3.4 3.4 2.0 0.0 0.0 0.0 0.0 1.3 0.3 0.0 2.0 0.0 0.3 0.4 0.7 1.6 1.8 3.6
0.0 0.0 0.0 0.0 0.0 0.0 0.0 0.0 0.0 0.0 0.0 0.0 0.0 14.1 0.0 0.0 11.8 11.8 4.7 0.2 0.0 0.0 0.0 0.2 0.0 0.0 1.0 1.3 0.5 0.2 1.9 0.5 0.0 0.0 0.7 0.0 0.2 0.8 0.0 0.0 0.0 0.0 0.2 0.3 3.2 2.6 3.5
0.0 0.0 0.0 0.0 0.0 0.0 0.0 0.0 0.0 0.0 0.0 0.0 4.2 5.1 0.0 0.0 13.0 6.2 0.7 0.9 0.0 0.0 0.0 0.2 0.6 0.4 0.0 1.3 0.6 1.5 0.7 0.0 0.0 0.0 1.2 0.0 1.3 1.2 0.8 0.0 0.0 0.1 0.2 1.0 2.1 2.1 4.2
0.0 0.0 0.0 0.0 0.0 0.0 0.0 0.0 0.0 0.0 0.0 0.0 0.1 30.7 0.0 0.0 0.9 1.7 2.2 1.5 2.1 0.0 0.0 0.0 0.1 0.0 0.1 0.3 0.2 0.2 1.4 0.0 0.0 0.0 0.0 0.0 0.9 4.5 4.8 5.7 3.5 1.3 0.2 0.2 0.7 4.8 7.2
0.0 0.0 0.0 0.0 0.0 0.0 0.0 0.0 0.0 0.0 0.0 0.0 11.8 20.7 0.0 26.2 14.1 1.2 1.6 1.6 1.9 2.5 0.0 0.0 0.8 0.4 0.5 2.2 1.3 2.6 1.3 1.3 0.0 0.0 0.0 0.0 1.9 1.2 0.2 0.8 6.1 4.1 0.7 0.6 1.9 0.9 3.0
0.0 0.0 0.0 0.0 0.0 0.0 0.0 0.0 0.0 0.0 0.0 0.0 44.8 10.8 1.4 0.9 0.2 3.7 3.1 2.5 0.6 1.8 2.7 2.2 1.6 0.2 0.9 2.0 1.7 1.6 1.8 1.4 1.1 0.0 0.0 0.0 3.6 0.7 0.2 0.2 2.6 2.9 0.5 0.3 0.6 1.3 2.9
0.0 0.0 0.0 0.0 0.0 0.0 0.0 0.0 0.0 0.0 0.0 0.0 0.0 0.0 0.0 2.7 4.6 9.1 5.3 2.3 1.9 0.3 0.0 0.1 0.0 3.0 2.7 1.2 0.0 0.0 0.0 0.0 0.0 0.4 1.0 2.0 4.7 7.2 4.0 0.2 5.6 8.1 7.3 4.9 2.4 2.1 2.4
0.0 0.0 0.0 0.0 0.0 0.0 0.0 0.0 0.0 0.0 0.0 0.0 0.0 0.0 10.9 15.2 3.8 3.6 0.4 0.2 1.5 1.6 1.9 0.0 0.0 3.0 0.0 0.0 0.0 0.0 0.0 0.0 0.0 0.0 0.0 1.9 4.8 8.8 5.7 4.4 12.7 7.3 4.8 5.9 8.6 5.6 6.7
0.0 0.0 0.0 0.0 0.0 0.0 0.0 0.0 0.0 0.0 0.0 0.0 0.0 0.0 0.6 12.6 4.6 6.6 3.8 3.1 1.8 2.3 4.4 2.5 0.0 0.0 0.0 0.0 6.4 4.3 4.4 2.6 1.4 0.0 0.0 0.0 2.4 11.9 10.9 8.3 4.5 1.4 0.0 0.8 2.2 2.6 1.9
0.0 0.0 0.0 0.0 0.0 0.0 0.0 0.0 0.0 0.0 0.0 0.0 0.0 0.0 0.5 13.4 7.9 0.0 4.0 3.5 5.2 5.6 5.6 4.4 0.0 0.0 0.0 7.6 8.7 8.4 3.5 1.9 2.1 2.8 0.0 0.0 0.3 7.8 9.6 10.8 5.5 1.8 0.0 0.0 0.7 5.1 2.5
0.0 0.0 0.0 0.0 0.0 0.0 0.0 0.0 0.0 0.0 0.0 0.0 0.0 0.0 0.0 22.1 0.0 0.0 1.8 3.9 0.0 2.0 4.5 4.2 1.0 0.0 0.0 9.7 8.8 5.6 3.0 0.6 2.1 4.7 3.8 2.9 5.7 7.6 5.5 12.2 4.1 0.0 0.0 0.0 7.2 8.8 0.5
0.0 0.0 0.0 0.0 0.0 0.0 0.0 0.0 0.0 0.0 0.0 0.0 0.0 0.0 0.0 15.9 3.2 0.0 0.0 1.1 1.2 0.7 5.4 4.8 7.0 7.3 7.7 8.5 9.5 6.7 4.4 1.8 1.7 3.4 7.4 3.8 7.2 7.1 9.3 10.6 6.5 0.0 0.0 2.4 2.7 0.6 0.6
0.0 0.0 0.0 0.0 0.0 0.0 0.0 0.0 0.0 0.0 0.0 0.0 0.0 0.0 0.0 2.3 5.7 0.0 0.0 0.0 0.0 0.0 0.0 0.1 1.7 2.5 2.4 7.7 5.8 5.5 6.6 4.9 4.2 5.2 0.0 9.4 4.3 8.7 6.5 7.9 2.0 0.3 1.5 1.2 0.6 0.3 0.5

GFSGBSN_prec_snow_210.txt.gz
Snowfall_Accumulation
0.0 0.0 0.0 0.0 0.0 0.0 0.0 0.0 0.0 0.0 0.0 0.0 0.0 0.0 0.0 0.0 0.0 0.0 0.0 0.0 0.0 0.0 0.0 0.0 0.0 0.0 0.0 0.0 0.0 0.0 0.0 0.0 0.0 0.0 0.0 0.0 0.0 0.0 0.0 0.0 0.0 0.0 0.0 0.0 0.0 0.0 0.0
0.0 0.0 0.0 0.0 0.0 0.0 0.0 0.0 0.0 0.0 0.0 0.0 0.0 0.0 0.0 0.0 0.0 0.0 0.0 0.0 0.0 0.0 0.0 0.0 0.0 0.0 0.0 0.0 0.0 0.0 0.0 0.0 0.0 0.0 0.0 0.0 0.0 0.0 0.0 0.0 0.0 0.0 0.0 0.0 0.0 0.0 0.0
0.0 0.0 0.0 0.0 0.0 0.0 0.0 0.0 0.0 0.0 0.0 0.0 0.0 0.0 0.0 0.0 0.0 0.0 0.0 0.0 0.0 0.0 0.0 0.0 0.0 0.0 0.0 0.0 0.0 0.0 0.0 0.0 0.0 0.0 0.0 0.0 0.0 0.0 0.0 0.0 0.0 0.0 0.0 0.0 0.0 0.0 0.0
0.0 0.0 0.0 0.0 0.0 0.0 0.0 0.0 0.0 0.0 0.0 0.0 0.0 0.0 0.0 0.0 0.0 0.0 0.0 0.0 0.0 0.0 0.0 0.0 0.0 0.0 0.0 0.0 0.0 0.0 0.0 0.0 0.0 0.0 0.0 0.0 0.0 0.0 0.0 0.0 0.0 0.0 0.0 0.0 0.0 0.0 0.0
0.0 0.0 0.0 0.0 0.0 0.0 0.0 0.0 0.0 0.0 0.0 0.0 0.0 0.0 0.0 0.0 0.0 0.0 0.0 0.0 0.0 0.0 0.0 0.0 0.0 0.0 0.0 0.0 0.0 0.0 0.0 0.0 0.0 0.0 0.0 0.0 0.0 0.0 0.0 0.0 0.0 0.0 0.0 0.0 0.0 0.0 0.0
0.0 0.0 0.0 0.0 0.0 0.0 0.0 0.0 0.0 0.0 0.0 0.0 0.0 0.0 0.0 0.0 0.0 0.0 0.0 0.0 0.0 0.0 0.0 0.0 0.0 0.1 0.0 0.0 0.0 0.0 0.0 0.0 0.0 0.0 0.0 0.0 0.0 0.0 0.0 0.0 0.0 0.0 0.0 0.0 0.0 0.0 0.0
0.0 0.0 0.0 0.0 0.0 0.0 0.0 0.0 0.0 0.0 0.0 0.0 0.0 0.0 0.0 0.0 0.0 0.0 0.0 0.0 0.0 0.0 0.0 0.0 0.0 0.0 0.0 0.0 0.0 0.0 0.0 0.0 0.0 0.0 0.0 0.0 0.0 0.0 0.0 0.0 0.0 0.0 0.0 0.0 0.0 0.0 0.0
0.0 0.0 0.0 0.0 0.0 0.0 0.0 0.0 0.0 0.0 0.0 0.0 0.0 0.0 0.0 0.0 0.0 0.0 0.0 0.0 0.0 0.0 0.7 0.0 0.0 0.0 0.0 0.0 0.0 0.0 0.0 0.0 0.0 0.0 0.0 0.0 0.2 0.0 0.0 0.0 0.0 0.0 0.2 0.0 0.0 0.0 0.0
0.0 0.0 0.0 0.0 0.0 0.0 0.0 0.0 0.0 0.0 0.0 0.0 0.0 0.0 0.0 0.0 0.0 0.0 0.0 0.0 0.0 0.0 1.6 0.0 0.0 0.0 0.0 0.0 0.0 0.0 0.0 0.0 0.0 0.0 0.0 0.3 0.0 0.0 0.0 0.0 0.0 0.0 0.0 0.0 0.0 0.0 0.0
0.0 0.0 0.0 0.0 0.0 0.0 0.0 0.0 0.0 0.0 0.0 0.0 0.0 0.0 0.0 0.0 0.0 0.0 0.0 0.0 0.0 0.0 3.6 0.0 0.0 0.0 0.0 0.0 0.0 0.0 0.0 0.0 0.0 0.0 0.6 0.7 0.0 0.2 0.0 0.0 0.0 0.4 0.0 0.0 0.1 0.6 0.9
0.0 0.0 0.0 0.0 0.0 0.0 0.0 0.0 0.0 0.0 0.0 0.0 0.0 0.0 0.0 0.0 0.0 0.0 0.0 0.0 0.0 0.0 4.7 0.0 0.0 0.0 0.0 0.0 0.0 0.0 0.0 0.0 0.0 0.0 1.4 1.6 0.0 2.2 0.8 0.0 0.0 0.2 0.0 0.0 0.0 0.1 0.2
0.0 0.0 0.0 0.0 0.0 0.0 0.0 0.0 0.0 0.0 0.0 0.0 0.0 0.0 0.0 0.0 0.0 0.0 0.0 0.0 0.0 5.9 3.4 0.0 0.1 1.0 0.0 0.0 0.0 0.0 0.0 0.0 0.0 0.0 0.0 0.3 0.0 0.0 0.0 0.0 0.0 0.0 0.0 0.0 0.0 0.4 1.8
0.0 0.0 0.0 0.0 0.0 0.0 0.0 0.0 0.0 0.0 0.0 0.0 0.0 0.0 0.0 0.0 0.0 0.0 0.0 0.0 6.1 4.6 0.0 0.2 0.3 2.4 1.2 0.7 1.6 0.0 0.0 0.0 0.0 0.3 0.4 0.0 0.0 0.0 0.0 0.0 0.0 0.4 0.2 0.9 2.1 1.8 0.4
0.0 0.0 0.0 0.0 0.0 0.0 0.0 0.0 0.0 0.0 0.0 0.0 0.0 0.0 0.0 0.0 0.0 0.0 0.0 4.2 7.8 1.4 0.1 0.0 0.6 2.2 1.6 1.6 2.1 0.0 0.0 0.0 0.0 0.0 0.0 0.4 1.7 0.0 0.0 0.0 0.8 0.0 0.1 0.0 2.9 1.5 1.0
0.0 0.0 0.0 0.0 0.0 0.0 0.0 0.0 0.0 0.0 0.0 0.0 0.0 0.0 0.0 0.0 0.0 0.0 0.5 9.5 1.7 1.4 0.0 0.0 0.0 0.7 1.0 0.8 4.0 5.1 3.7 0.5 0.0 0.0 1.9 1.2 1.4 0.0 0.0 0.0 0.0 0.2 0.6 0.0 1.6 1.5 2.2
0.0 0.0 0.0 0.0 0.0 0.0 0.0 0.0 0.0 0.0 0.0 0.0 0.0 0.0 0.0 0.0 0.0 0.0 8.5 5.8 0.0 0.1 0.0 0.0 0.0 0.1 1.0 0.8 1.2 6.9 3.1 1.6 0.1 0.0 0.0 0.7 0.9 0.0 0.0 0.0 0.0 0.0 0.0 0.3 0.9 4.2 2.9
0.0 0.0 0.0 0.0 0.0 0.0 0.0 0.0 0.0 0.0 0.0 0.0 0.0 1.9 0.0 0.0 0.0 0.0 14.5 2.1 0.0 0.0 0.0 0.0 0.1 0.4 0.1 0.5 0.4 3.4 3.4 2.0 0.0 0.0 0.0 0.0 1.3 0.3 0.0 2.0 0.0 0.3 0.4 0.7 1.6 1.8 3.6
0.0 0.0 0.0 0.0 0.0 0.0 0.0 0.0 0.0 0.0 0.0 0.0 0.0 14.1 0.0 0.0 11.8 11.8 4.7 0.2 0.0 0.0 0.0 0.2 0.0 0.0 1.0 1.3 0.5 0.2 1.9 0.5 0.0 0.0 0.7 0.0 0.2 0.8 0.0 0.0 0.0 0.0 0.2 0.3 3.2 2.6 3.5
0.0 0.0 0.0 0.0 0.0 0.0 0.0 0.0 0.0 0.0 0.0 0.0 4.2 5.1 0.0 0.0 13.0 6.2 0.7 0.9 0.0 0.0 0.0 0.2 0.6 0.4 0.0 1.3 0.6 1.5 0.7 0.0 0.0 0.0 1.2 0.0 1.3 1.2 0.8 0.0 0.0 0.1 0.2 1.0 2.1 2.1 4.2
0.0 0.0 0.0 0.0 0.0 0.0 0.0 0.0 0.0 0.0 0.0 0.0 0.1 30.7 0.0 0.0 0.9 1.7 2.2 1.5 2.1 0.0 0.0 0.0 0.1 0.0 0.1 0.3 0.2 0.2 1.4 0.0 0.0 0.0 0.0 0.0 0.9 4.5 4.8 5.7 3.5 1.3 0.2 0.2 0.7 4.8 7.2
0.0 0.0 0.0 0.0 0.0 0.0 0.0 0.0 0.0 0.0 0.0 0.0 11.8 20.7 0.0 26.2 14.1 1.2 1.6 1.6 1.9 2.5 0.0 0.0 0.8 0.4 0.5 2.2 1.3 2.6 1.3 1.3 0.0 0.0 0.0 0.0 2.3 1.2 0.2 0.8 6.1 4.1 0.7 0.6 1.9 0.9 3.0
0.0 0.0 0.0 0.0 0.0 0.0 0.0 0.0 0.0 0.0 0.0 0.0 44.8 10.8 1.4 0.9 0.2 3.7 3.1 2.5 0.6 1.8 2.7 2.2 1.6 0.2 0.9 2.0 1.7 1.6 1.8 1.4 1.1 0.0 0.0 0.0 3.6 0.7 0.2 0.2 2.6 2.9 0.5 0.3 0.6 1.3 2.9
0.0 0.0 0.0 0.0 0.0 0.0 0.0 0.0 0.0 0.0 0.0 0.0 0.0 0.0 0.0 2.7 4.6 9.1 5.3 2.3 1.9 0.3 0.0 0.1 0.0 3.0 2.7 1.2 0.0 0.0 0.0 0.0 0.0 0.4 1.0 2.0 4.8 7.2 4.2 0.2 5.6 8.3 7.3 4.9 2.4 2.1 2.4
0.0 0.0 0.0 0.0 0.0 0.0 0.0 0.0 0.0 0.0 0.0 0.0 0.0 0.0 10.9 15.2 3.8 3.6 0.4 0.2 1.5 1.6 1.9 0.0 0.0 3.0 0.0 0.0 0.0 0.0 0.0 0.0 0.0 0.0 0.0 1.9 4.9 9.3 6.2 4.4 13.2 7.3 4.8 5.9 8.6 5.6 6.7
0.0 0.0 0.0 0.0 0.0 0.0 0.0 0.0 0.0 0.0 0.0 0.0 0.0 0.0 0.6 16.7 4.6 6.6 3.8 3.1 1.8 2.3 4.4 2.5 0.0 0.0 0.0 0.0 6.4 7.8 7.1 4.4 2.1 0.0 0.0 0.0 2.4 12.5 11.5 8.5 4.5 1.4 0.0 0.8 2.2 2.6 1.9
0.0 0.0 0.0 0.0 0.0 0.0 0.0 0.0 0.0 0.0 0.0 0.0 0.0 0.0 0.5 13.4 7.9 0.0 4.0 3.5 5.2 5.6 5.6 4.4 0.0 0.0 0.0 7.6 12.1 11.5 5.1 2.4 2.4 2.8 0.0 0.0 0.3 8.3 10.2 11.1 5.5 1.8 0.0 0.0 0.7 5.1 2.5
0.0 0.0 0.0 0.0 0.0 0.0 0.0 0.0 0.0 0.0 0.0 0.0 0.0 0.0 0.0 22.1 0.0 0.0 1.8 3.9 0.0 2.0 4.5 4.2 1.0 0.0 0.0 12.1 11.9 7.9 4.5 0.6 2.7 4.9 3.9 3.3 6.2 8.3 5.9 12.7 4.1 0.0 0.0 0.0 7.2 8.8 0.5
0.0 0.0 0.0 0.0 0.0 0.0 0.0 0.0 0.0 0.0 0.0 0.0 0.0 0.0 0.0 15.9 3.2 0.0 0.0 1.1 1.2 0.7 5.4 5.9 8.6 10.1 10.1 10.6 11.7 8.4 5.5 2.3 1.9 3.4 7.4 3.8 7.6 7.5 9.6 11.5 6.9 0.0 0.0 2.4 2.7 0.6 0.6
0.0 0.0 0.0 0.0 0.0 0.0 0.0 0.0 0.0 0.0 0.0 0.0 0.0 0.0 0.0 2.3 5.7 0.0 0.0 0.0 0.0 0.0 0.0 0.1 1.7 2.5 2.4 9.1 7.6 7.0 7.6 4.9 4.3 5.5 0.0 9.4 4.3 8.7 6.5 7.9 2.0 0.3 1.5 1.2 0.6 0.3 0.5

GFSGBSN_prec_snow_216.txt.gz
Snowfall_Accumulation
0.0 0.0 0.0 0.0 0.0 0.0 0.0 0.0 0.0 0.0 0.0 0.0 0.0 0.0 0.0 0.0 0.0 0.0 0.0 0.0 0.0 0.0 0.0 0.0 0.0 0.0 0.0 0.0 0.0 0.0 0.0 0.0 0.0 0.0 0.0 0.0 0.0 0.0 0.0 0.0 0.0 0.0 0.0 0.0 0.0 0.0 0.0
0.0 0.0 0.0 0.0 0.0 0.0 0.0 0.0 0.0 0.0 0.0 0.0 0.0 0.0 0.0 0.0 0.0 0.0 0.0 0.0 0.0 0.0 0.0 0.0 0.0 0.0 0.0 0.0 0.0 0.0 0.0 0.0 0.0 0.0 0.0 0.0 0.0 0.0 0.0 0.0 0.0 0.0 0.0 0.0 0.0 0.0 0.0
0.0 0.0 0.0 0.0 0.0 0.0 0.0 0.0 0.0 0.0 0.0 0.0 0.0 0.0 0.0 0.0 0.0 0.0 0.0 0.0 0.0 0.0 0.0 0.0 0.0 0.0 0.0 0.0 0.0 0.0 0.0 0.0 0.0 0.0 0.0 0.0 0.0 0.0 0.0 0.0 0.0 0.0 0.0 0.0 0.0 0.0 0.0
0.0 0.0 0.0 0.0 0.0 0.0 0.0 0.0 0.0 0.0 0.0 0.0 0.0 0.0 0.0 0.0 0.0 0.0 0.0 0.0 0.0 0.0 0.0 0.0 0.0 0.0 0.0 0.0 0.0 0.0 0.0 0.0 0.0 0.0 0.0 0.0 0.0 0.0 0.0 0.0 0.0 0.0 0.0 0.0 0.0 0.0 0.0
0.0 0.0 0.0 0.0 0.0 0.0 0.0 0.0 0.0 0.0 0.0 0.0 0.0 0.0 0.0 0.0 0.0 0.0 0.0 0.0 0.0 0.0 0.0 0.0 0.0 0.0 0.0 0.0 0.0 0.0 0.0 0.0 0.0 0.0 0.0 0.0 0.0 0.0 0.0 0.0 0.0 0.0 0.0 0.0 0.0 0.0 0.0
0.0 0.0 0.0 0.0 0.0 0.0 0.0 0.0 0.0 0.0 0.0 0.0 0.0 0.0 0.0 0.0 0.0 0.0 0.0 0.0 0.0 0.0 0.0 0.0 0.0 0.1 0.0 0.0 0.0 0.0 0.0 0.0 0.0 0.0 0.0 0.0 0.0 0.0 0.0 0.0 0.0 0.0 0.0 0.0 0.0 0.0 0.0
0.0 0.0 0.0 0.0 0.0 0.0 0.0 0.0 0.0 0.0 0.0 0.0 0.0 0.0 0.0 0.0 0.0 0.0 0.0 0.0 0.0 0.0 0.0 0.0 0.0 0.0 0.0 0.0 0.0 0.0 0.0 0.0 0.0 0.0 0.0 0.0 0.0 0.0 0.0 0.0 0.0 0.0 0.0 0.0 0.0 0.0 0.0
0.0 0.0 0.0 0.0 0.0 0.0 0.0 0.0 0.0 0.0 0.0 0.0 0.0 0.0 0.0 0.0 0.0 0.0 0.0 0.0 0.0 0.0 0.7 0.0 0.0 0.0 0.0 0.0 0.0 0.0 0.0 0.0 0.0 0.0 0.0 0.0 0.2 0.0 0.0 0.0 0.0 0.0 0.2 0.0 0.0 0.0 0.0
0.0 0.0 0.0 0.0 0.0 0.0 0.0 0.0 0.0 0.0 0.0 0.0 0.0 0.0 0.0 0.0 0.0 0.0 0.0 0.0 0.0 0.0 1.6 0.0 0.0 0.0 0.0 0.0 0.0 0.0 0.0 0.0 0.0 0.0 0.0 0.3 0.0 0.0 0.0 0.0 0.0 0.0 0.0 0.0 0.0 0.0 0.0
0.0 0.0 0.0 0.0 0.0 0.0 0.0 0.0 0.0 0.0 0.0 0.0 0.0 0.0 0.0 0.0 0.0 0.0 0.0 0.0 0.0 0.0 3.6 0.0 0.0 0.0 0.0 0.0 0.0 0.0 0.0 0.0 0.0 0.0 0.6 0.7 0.0 0.2 0.0 0.0 0.0 0.4 0.0 0.0 0.1 0.6 0.9
0.0 0.0 0.0 0.0 0.0 0.0 0.0 0.0 0.0 0.0 0.0 0.0 0.0 0.0 0.0 0.0 0.0 0.0 0.0 0.0 0.0 0.0 4.7 0.0 0.0 0.0 0.0 0.0 0.0 0.0 0.0 0.0 0.0 0.0 1.4 1.6 0.0 2.2 0.8 0.0 0.0 0.2 0.0 0.0 0.0 0.1 0.2
0.0 0.0 0.0 0.0 0.0 0.0 0.0 0.0 0.0 0.0 0.0 0.0 0.0 0.0 0.0 0.0 0.0 0.0 0.0 0.0 0.0 5.9 3.4 0.0 0.1 1.0 0.0 0.0 0.0 0.0 0.0 0.0 0.0 0.0 0.0 0.3 0.0 0.0 0.0 0.0 0.0 0.0 0.0 0.0 0.0 0.4 1.8
0.0 0.0 0.0 0.0 0.0 0.0 0.0 0.0 0.0 0.0 0.0 0.0 0.0 0.0 0.0 0.0 0.0 0.0 0.0 0.0 6.1 4.6 0.0 0.2 0.3 2.4 1.2 0.7 1.6 0.0 0.0 0.0 0.0 0.3 0.4 0.0 0.0 0.0 0.0 0.0 0.0 0.4 0.2 0.9 2.1 1.8 0.4
0.0 0.0 0.0 0.0 0.0 0.0 0.0 0.0 0.0 0.0 0.0 0.0 0.0 0.0 0.0 0.0 0.0 0.0 0.0 4.2 7.8 1.4 0.1 0.0 0.6 2.2 1.6 1.6 2.1 0.0 0.0 0.0 0.0 0.0 0.0 0.4 1.7 0.0 0.0 0.0 0.8 0.0 0.1 0.0 2.9 1.5 1.0
0.0 0.0 0.0 0.0 0.0 0.0 0.0 0.0 0.0 0.0 0.0 0.0 0.0 0.0 0.0 0.0 0.0 0.0 0.5 9.5 1.7 1.4 0.0 0.0 0.0 0.7 1.0 0.8 4.0 5.1 3.7 0.5 0.0 0.0 1.9 1.2 1.4 0.0 0.0 0.0 0.0 0.2 0.6 0.0 1.6 1.5 2.2
0.0 0.0 0.0 0.0 0.0 0.0 0.0 0.0 0.0 0.0 0.0 0.0 0.0 0.0 0.0 0.0 0.0 0.0 8.5 5.8 0.0 0.1 0.0 0.0 0.0 0.1 1.0 0.8 1.2 6.9 3.1 1.6 0.1 0.0 0.0 0.7 0.9 0.0 0.0 0.0 0.0 0.0 0.0 0.3 0.9 4.2 2.9
0.0 0.0 0.0 0.0 0.0 0.0 0.0 0.0 0.0 0.0 0.0 0.0 0.0 1.9 0.0 0.0 0.0 0.0 14.5 2.1 0.0 0.0 0.0 0.0 0.1 0.4 0.1 0.5 0.4 3.4 3.4 2.0 0.0 0.0 0.0 0.0 1.3 0.3 0.0 2.0 0.0 0.3 0.4 0.7 1.6 1.8 3.6
0.0 0.0 0.0 0.0 0.0 0.0 0.0 0.0 0.0 0.0 0.0 0.0 0.0 14.1 0.0 0.0 11.8 11.8 4.7 0.2 0.0 0.0 0.0 0.2 0.0 0.0 1.0 1.3 0.5 0.2 1.9 0.5 0.0 0.0 0.7 0.0 0.2 0.8 0.0 0.0 0.0 0.0 0.2 0.3 3.2 2.6 3.5
0.0 0.0 0.0 0.0 0.0 0.0 0.0 0.0 0.0 0.0 0.0 0.0 4.2 5.1 0.0 0.0 13.0 6.2 0.7 0.9 0.0 0.0 0.0 0.2 0.6 0.4 0.0 1.3 0.6 1.5 0.7 0.0 0.0 0.0 1.2 0.0 1.3 1.2 0.8 0.0 0.0 0.1 0.2 1.0 2.1 2.1 4.2
0.0 0.0 0.0 0.0 0.0 0.0 0.0 0.0 0.0 0.0 0.0 0.0 0.1 30.7 0.0 0.0 0.9 1.7 2.2 1.5 2.1 0.0 0.0 0.0 0.1 0.0 0.1 0.3 0.2 0.2 1.4 0.0 0.0 0.0 0.0 0.0 0.9 4.5 4.8 5.7 3.5 1.3 0.2 0.2 0.7 4.8 7.2
0.0 0.0 0.0 0.0 0.0 0.0 0.0 0.0 0.0 0.0 0.0 0.0 11.8 20.7 0.0 26.2 14.1 1.2 1.6 1.6 1.9 2.5 0.0 0.0 0.8 0.4 0.5 2.2 1.3 2.6 1.3 1.3 0.0 0.0 0.0 0.0 2.3 1.2 0.2 0.8 6.1 4.1 0.7 0.6 1.9 0.9 3.0
0.0 0.0 0.0 0.0 0.0 0.0 0.0 0.0 0.0 0.0 0.0 0.0 44.8 10.8 1.4 0.9 0.2 3.7 3.1 2.5 0.6 1.8 2.7 2.2 1.6 0.2 0.9 2.0 1.7 1.6 1.8 1.4 1.1 0.0 0.0 0.0 3.6 0.7 0.2 0.2 2.6 2.9 0.5 0.3 0.6 1.3 2.9
0.0 0.0 0.0 0.0 0.0 0.0 0.0 0.0 0.0 0.0 0.0 0.0 0.0 0.0 0.0 2.7 4.6 9.1 5.3 2.3 1.9 0.3 0.0 0.1 0.0 3.0 2.7 1.2 0.0 0.0 0.0 0.0 0.0 0.4 1.0 2.0 5.5 7.5 5.3 0.2 5.6 8.3 7.3 4.9 2.4 2.1 2.4
0.0 0.0 0.0 0.0 0.0 0.0 0.0 0.0 0.0 0.0 0.0 0.0 0.0 0.0 10.9 15.2 3.8 3.6 0.4 0.2 1.5 1.6 1.9 0.0 0.0 3.0 0.0 0.0 0.0 0.0 0.0 0.0 0.0 0.0 0.0 1.9 5.8 12.1 8.7 6.1 16.2 7.3 4.8 5.9 8.6 5.6 6.7
0.0 0.0 0.0 0.0 0.0 0.0 0.0 0.0 0.0 0.0 0.0 0.0 0.0 0.0 4.3 20.4 4.6 6.6 3.8 3.1 1.8 2.3 4.4 2.5 0.0 0.0 0.0 0.0 6.4 10.5 9.8 4.4 2.1 0.0 0.0 0.0 2.4 16.4 15.7 11.4 4.5 1.4 0.0 0.8 2.2 2.6 1.9
0.0 0.0 0.0 0.0 0.0 0.0 0.0 0.0 0.0 0.0 0.0 0.0 0.0 0.0 0.5 17.0 11.6 0.0 4.0 3.5 5.2 5.6 5.6 4.4 0.0 0.0 0.0 7.6 12.1 17.1 8.9 3.6 4.0 3.2 0.0 0.0 0.3 10.6 15.4 14.5 6.6 1.8 0.0 0.0 0.7 5.1 2.5
0.0 0.0 0.0 0.0 0.0 0.0 0.0 0.0 0.0 0.0 0.0 0.0 0.0 0.0 0.0 26.7 0.0 0.0 1.8 3.9 0.0 2.0 4.5 4.2 1.0 0.0 0.0 12.1 14.0 12.8 8.2 0.6 4.4 5.3 3.9 3.8 8.8 12.4 8.0 15.7 6.0 0.0 0.0 0.0 7.2 8.8 0.5
0.0 0.0 0.0 0.0 0.0 0.0 0.0 0.0 0.0 0.0 0.0 0.0 0.0 0.0 0.0 17.7 3.2 0.0 0.0 1.1 1.2 0.7 5.4 5.9 8.6 11.3 10.1 12.2 13.7 12.5 8.7 4.7 3.2 3.4 7.4 3.8 9.3 10.4 11.7 15.0 9.3 0.0 0.0 2.4 2.7 0.6 0.6
0.0 0.0 0.0 0.0 0.0 0.0 0.0 0.0 0.0 0.0 0.0 0.0 0.0 0.0 0.0 2.3 5.7 0.0 0.0 0.0 0.0 0.0 0.0 0.1 1.7 2.5 2.4 9.1 9.2 8.5 11.4 8.0 5.6 6.4 0.0 9.8 4.3 8.7 6.7 8.1 2.0 0.3 1.5 1.2 0.6 0.3 0.5

GFSGBSN_prec_snow_219.txt.gz
Snowfall_Accumulation
0.0 0.0 0.0 0.0 0.0 0.0 0.0 0.0 0.0 0.0 0.0 0.0 0.0 0.0 0.0 0.0 0.0 0.0 0.0 0.0 0.0 0.0 0.0 0.0 0.0 0.0 0.0 0.0 0.0 0.0 0.0 0.0 0.0 0.0 0.0 0.0 0.0 0.0 0.0 0.0 0.0 0.0 0.0 0.0 0.0 0.0 0.0
0.0 0.0 0.0 0.0 0.0 0.0 0.0 0.0 0.0 0.0 0.0 0.0 0.0 0.0 0.0 0.0 0.0 0.0 0.0 0.0 0.0 0.0 0.0 0.0 0.0 0.0 0.0 0.0 0.0 0.0 0.0 0.0 0.0 0.0 0.0 0.0 0.0 0.0 0.0 0.0 0.0 0.0 0.0 0.0 0.0 0.0 0.0
0.0 0.0 0.0 0.0 0.0 0.0 0.0 0.0 0.0 0.0 0.0 0.0 0.0 0.0 0.0 0.0 0.0 0.0 0.0 0.0 0.0 0.0 0.0 0.0 0.0 0.0 0.0 0.0 0.0 0.0 0.0 0.0 0.0 0.0 0.0 0.0 0.0 0.0 0.0 0.0 0.0 0.0 0.0 0.0 0.0 0.0 0.0
0.0 0.0 0.0 0.0 0.0 0.0 0.0 0.0 0.0 0.0 0.0 0.0 0.0 0.0 0.0 0.0 0.0 0.0 0.0 0.0 0.0 0.0 0.0 0.0 0.0 0.0 0.0 0.0 0.0 0.0 0.0 0.0 0.0 0.0 0.0 0.0 0.0 0.0 0.0 0.0 0.0 0.0 0.0 0.0 0.0 0.0 0.0
0.0 0.0 0.0 0.0 0.0 0.0 0.0 0.0 0.0 0.0 0.0 0.0 0.0 0.0 0.0 0.0 0.0 0.0 0.0 0.0 0.0 0.0 0.0 0.0 0.0 0.0 0.0 0.0 0.0 0.0 0.0 0.0 0.0 0.0 0.0 0.0 0.0 0.0 0.0 0.0 0.0 0.0 0.0 0.0 0.0 0.0 0.0
0.0 0.0 0.0 0.0 0.0 0.0 0.0 0.0 0.0 0.0 0.0 0.0 0.0 0.0 0.0 0.0 0.0 0.0 0.0 0.0 0.0 0.0 0.0 0.0 0.0 0.1 0.0 0.0 0.0 0.0 0.0 0.0 0.0 0.0 0.0 0.0 0.0 0.0 0.0 0.0 0.0 0.0 0.0 0.0 0.0 0.0 0.0
0.0 0.0 0.0 0.0 0.0 0.0 0.0 0.0 0.0 0.0 0.0 0.0 0.0 0.0 0.0 0.0 0.0 0.0 0.0 0.0 0.0 0.0 0.0 0.0 0.0 0.0 0.0 0.0 0.0 0.0 0.0 0.0 0.0 0.0 0.0 0.0 0.0 0.0 0.0 0.0 0.0 0.0 0.0 0.0 0.0 0.0 0.0
0.0 0.0 0.0 0.0 0.0 0.0 0.0 0.0 0.0 0.0 0.0 0.0 0.0 0.0 0.0 0.0 0.0 0.0 0.0 0.0 0.0 0.0 0.7 0.0 0.0 0.0 0.0 0.0 0.0 0.0 0.0 0.0 0.0 0.0 0.0 0.0 0.2 0.0 0.0 0.0 0.0 0.0 0.2 0.0 0.0 0.0 0.0
0.0 0.0 0.0 0.0 0.0 0.0 0.0 0.0 0.0 0.0 0.0 0.0 0.0 0.0 0.0 0.0 0.0 0.0 0.0 0.0 0.0 0.0 1.6 0.0 0.0 0.0 0.0 0.0 0.0 0.0 0.0 0.0 0.0 0.0 0.0 0.3 0.0 0.0 0.0 0.0 0.0 0.0 0.0 0.0 0.0 0.0 0.0
0.0 0.0 0.0 0.0 0.0 0.0 0.0 0.0 0.0 0.0 0.0 0.0 0.0 0.0 0.0 0.0 0.0 0.0 0.0 0.0 0.0 0.0 3.6 0.0 0.0 0.0 0.0 0.0 0.0 0.0 0.0 0.0 0.0 0.0 0.6 0.7 0.0 0.2 0.0 0.0 0.0 0.4 0.0 0.0 0.1 0.6 0.9
0.0 0.0 0.0 0.0 0.0 0.0 0.0 0.0 0.0 0.0 0.0 0.0 0.0 0.0 0.0 0.0 0.0 0.0 0.0 0.0 0.0 0.0 4.7 0.0 0.0 0.0 0.0 0.0 0.0 0.0 0.0 0.0 0.0 0.0 1.4 1.6 0.0 2.2 0.8 0.0 0.0 0.2 0.0 0.0 0.0 0.1 0.2
0.0 0.0 0.0 0.0 0.0 0.0 0.0 0.0 0.0 0.0 0.0 0.0 0.0 0.0 0.0 0.0 0.0 0.0 0.0 0.0 0.0 5.9 3.4 0.0 0.1 1.0 0.0 0.0 0.0 0.0 0.0 0.0 0.0 0.0 0.0 0.3 0.0 0.0 0.0 0.0 0.0 0.0 0.0 0.0 0.0 0.4 1.8
0.0 0.0 0.0 0.0 0.0 0.0 0.0 0.0 0.0 0.0 0.0 0.0 0.0 0.0 0.0 0.0 0.0 0.0 0.0 0.0 6.1 4.6 0.0 0.2 0.3 2.4 1.2 0.7 1.6 0.0 0.0 0.0 0.0 0.3 0.4 0.0 0.0 0.0 0.0 0.0 0.0 0.4 0.2 0.9 2.1 1.8 0.4
0.0 0.0 0.0 0.0 0.0 0.0 0.0 0.0 0.0 0.0 0.0 0.0 0.0 0.0 0.0 0.0 0.0 0.0 0.0 4.2 7.8 1.4 0.1 0.0 0.6 2.2 1.6 1.6 2.1 0.0 0.0 0.0 0.0 0.0 0.0 0.4 1.7 0.0 0.0 0.0 0.8 0.0 0.1 0.0 2.9 1.5 1.0
0.0 0.0 0.0 0.0 0.0 0.0 0.0 0.0 0.0 0.0 0.0 0.0 0.0 0.0 0.0 0.0 0.0 0.0 0.5 9.5 1.7 1.4 0.0 0.0 0.0 0.7 1.0 0.8 4.0 5.1 3.7 0.5 0.0 0.0 1.9 1.2 1.4 0.0 0.0 0.0 0.0 0.2 0.6 0.0 1.6 1.5 2.2
0.0 0.0 0.0 0.0 0.0 0.0 0.0 0.0 0.0 0.0 0.0 0.0 0.0 0.0 0.0 0.0 0.0 0.0 8.5 5.8 0.0 0.1 0.0 0.0 0.0 0.1 1.0 0.8 1.2 6.9 3.1 1.6 0.1 0.0 0.0 0.7 0.9 0.0 0.0 0.0 0.0 0.0 0.0 0.3 0.9 4.2 2.9
0.0 0.0 0.0 0.0 0.0 0.0 0.0 0.0 0.0 0.0 0.0 0.0 0.0 1.9 0.0 0.0 0.0 0.0 14.5 2.1 0.0 0.0 0.0 0.0 0.1 0.4 0.1 0.5 0.4 3.4 3.4 2.0 0.0 0.0 0.0 0.0 1.3 0.3 0.0 2.0 0.0 0.3 0.4 0.7 1.6 1.8 3.6
0.0 0.0 0.0 0.0 0.0 0.0 0.0 0.0 0.0 0.0 0.0 0.0 0.0 14.1 0.0 0.0 11.8 11.8 4.7 0.2 0.0 0.0 0.0 0.2 0.0 0.0 1.0 1.3 0.5 0.2 1.9 0.5 0.0 0.0 0.7 0.0 0.2 0.8 0.0 0.0 0.0 0.0 0.2 0.3 3.2 2.6 3.5
0.0 0.0 0.0 0.0 0.0 0.0 0.0 0.0 0.0 0.0 0.0 0.0 4.2 5.1 0.0 0.0 13.0 6.2 0.7 0.9 0.0 0.0 0.0 0.2 0.6 0.4 0.0 1.3 0.6 1.5 0.7 0.0 0.0 0.0 1.2 0.0 1.3 1.2 0.8 0.0 0.0 0.1 0.2 1.0 2.1 2.1 4.2
0.0 0.0 0.0 0.0 0.0 0.0 0.0 0.0 0.0 0.0 0.0 0.0 0.1 30.7 0.0 0.0 0.9 1.7 2.2 1.5 2.1 0.0 0.0 0.0 0.1 0.0 0.1 0.3 0.2 0.2 1.4 0.0 0.0 0.0 0.0 0.0 0.9 4.5 4.8 5.7 3.5 1.3 0.2 0.2 0.7 4.8 7.2
0.0 0.0 0.0 0.0 0.0 0.0 0.0 0.0 0.0 0.0 0.0 0.0 11.8 20.7 0.0 26.2 14.1 1.2 1.6 1.6 1.9 2.5 0.0 0.0 0.8 0.4 0.5 2.2 1.3 2.6 1.3 1.3 0.0 0.0 0.0 0.0 2.3 1.2 0.2 0.8 6.1 4.1 0.7 0.6 1.9 0.9 3.0
0.0 0.0 0.0 0.0 0.0 0.0 0.0 0.0 0.0 0.0 0.0 0.0 44.8 10.8 1.4 0.9 0.2 3.7 3.1 2.5 0.6 1.8 2.7 2.2 1.6 0.2 0.9 2.0 1.7 1.6 1.8 1.4 1.1 0.0 0.0 0.0 3.6 0.7 0.2 0.2 2.6 2.9 0.5 0.3 0.6 1.3 2.9
0.0 0.0 0.0 0.0 0.0 0.0 0.0 0.0 0.0 0.0 0.0 0.0 0.0 0.0 0.0 2.7 4.6 9.1 5.3 2.3 1.9 0.3 0.0 0.1 0.0 3.0 2.7 1.2 0.0 0.0 0.0 0.0 0.0 0.4 1.0 2.0 5.5 7.5 5.3 0.2 5.6 8.3 7.3 4.9 2.4 2.1 2.4
0.0 0.0 0.0 0.0 0.0 0.0 0.0 0.0 0.0 0.0 0.0 0.0 0.0 0.0 10.9 15.2 3.8 3.6 0.4 0.2 1.5 1.6 1.9 0.0 0.0 3.0 0.0 0.0 0.0 0.0 0.0 0.0 0.0 0.0 0.0 1.9 5.8 12.1 8.7 6.1 17.9 7.3 4.8 5.9 8.6 5.6 6.7
0.0 0.0 0.0 0.0 0.0 0.0 0.0 0.0 0.0 0.0 0.0 0.0 0.0 0.0 4.3 20.4 4.6 6.6 3.8 3.1 1.8 2.3 4.4 2.5 0.0 0.0 0.0 0.0 6.4 10.5 9.8 4.4 2.1 0.0 0.0 0.0 2.4 16.4 18.6 13.9 4.5 1.4 0.0 0.8 2.2 2.6 1.9
0.0 0.0 0.0 0.0 0.0 0.0 0.0 0.0 0.0 0.0 0.0 0.0 0.0 0.0 0.5 19.5 11.6 0.0 4.0 3.5 5.2 5.6 5.6 4.4 0.0 0.0 0.0 7.6 12.1 17.1 11.0 3.6 4.0 3.2 0.0 0.0 0.3 10.6 19.4 17.4 7.9 1.8 0.0 0.0 0.7 5.1 2.5
0.0 0.0 0.0 0.0 0.0 0.0 0.0 0.0 0.0 0.0 0.0 0.0 0.0 0.0 0.0 29.7 0.0 0.0 1.8 3.9 0.0 2.0 4.5 4.2 1.0 0.0 0.0 12.1 14.0 15.4 9.8 0.6 5.1 5.5 3.9 3.8 8.8 13.9 9.7 17.3 6.0 0.0 0.0 0.0 7.2 8.8 0.5
0.0 0.0 0.0 0.0 0.0 0.0 0.0 0.0 0.0 0.0 0.0 0.0 0.0 0.0 0.0 20.6 4.6 0.0 0.0 1.1 1.2 0.7 5.4 5.9 8.6 11.3 10.1 12.2 13.7 15.6 10.4 5.6 3.2 3.4 7.4 3.8 9.5 11.0 12.3 16.5 10.7 0.0 0.0 2.4 2.7 0.6 0.6
0.0 0.0 0.0 0.0 0.0 0.0 0.0 0.0 0.0 0.0 0.0 0.0 0.0 0.0 0.0 2.3 7.3 0.0 0.0 0.0 0.0 0.0 0.0 0.1 1.7 2.5 2.4 9.1 9.2 8.5 13.6 9.6 6.5 6.9 0.0 10.0 4.3 8.7 6.7 8.1 2.0 0.3 1.5 1.2 0.6 0.3 0.5

GFSGBSN_prec_snow_222.txt.gz
Snowfall_Accumulation
0.0 0.0 0.0 0.0 0.0 0.0 0.0 0.0 0.0 0.0 0.0 0.0 0.0 0.0 0.0 0.0 0.0 0.0 0.0 0.0 0.0 0.0 0.0 0.0 0.0 0.0 0.0 0.0 0.0 0.0 0.0 0.0 0.0 0.0 0.0 0.0 0.0 0.0 0.0 0.0 0.0 0.0 0.0 0.0 0.0 0.0 0.0
0.0 0.0 0.0 0.0 0.0 0.0 0.0 0.0 0.0 0.0 0.0 0.0 0.0 0.0 0.0 0.0 0.0 0.0 0.0 0.0 0.0 0.0 0.0 0.0 0.0 0.0 0.0 0.0 0.0 0.0 0.0 0.0 0.0 0.0 0.0 0.0 0.0 0.0 0.0 0.0 0.0 0.0 0.0 0.0 0.0 0.0 0.0
0.0 0.0 0.0 0.0 0.0 0.0 0.0 0.0 0.0 0.0 0.0 0.0 0.0 0.0 0.0 0.0 0.0 0.0 0.0 0.0 0.0 0.0 0.0 0.0 0.0 0.0 0.0 0.0 0.0 0.0 0.0 0.0 0.0 0.0 0.0 0.0 0.0 0.0 0.0 0.0 0.0 0.0 0.0 0.0 0.0 0.0 0.0
0.0 0.0 0.0 0.0 0.0 0.0 0.0 0.0 0.0 0.0 0.0 0.0 0.0 0.0 0.0 0.0 0.0 0.0 0.0 0.0 0.0 0.0 0.0 0.0 0.0 0.0 0.0 0.0 0.0 0.0 0.0 0.0 0.0 0.0 0.0 0.0 0.0 0.0 0.0 0.0 0.0 0.0 0.0 0.0 0.0 0.0 0.0
0.0 0.0 0.0 0.0 0.0 0.0 0.0 0.0 0.0 0.0 0.0 0.0 0.0 0.0 0.0 0.0 0.0 0.0 0.0 0.0 0.0 0.0 0.0 0.0 0.0 0.0 0.0 0.0 0.0 0.0 0.0 0.0 0.0 0.0 0.0 0.0 0.0 0.0 0.0 0.0 0.0 0.0 0.0 0.0 0.0 0.0 0.0
0.0 0.0 0.0 0.0 0.0 0.0 0.0 0.0 0.0 0.0 0.0 0.0 0.0 0.0 0.0 0.0 0.0 0.0 0.0 0.0 0.0 0.0 0.0 0.0 0.0 0.1 0.0 0.0 0.0 0.0 0.0 0.0 0.0 0.0 0.0 0.0 0.0 0.0 0.0 0.0 0.0 0.0 0.0 0.0 0.0 0.0 0.0
0.0 0.0 0.0 0.0 0.0 0.0 0.0 0.0 0.0 0.0 0.0 0.0 0.0 0.0 0.0 0.0 0.0 0.0 0.0 0.0 0.0 0.0 0.0 0.0 0.0 0.0 0.0 0.0 0.0 0.0 0.0 0.0 0.0 0.0 0.0 0.0 0.0 0.0 0.0 0.0 0.0 0.0 0.0 0.0 0.0 0.0 0.0
0.0 0.0 0.0 0.0 0.0 0.0 0.0 0.0 0.0 0.0 0.0 0.0 0.0 0.0 0.0 0.0 0.0 0.0 0.0 0.0 0.0 0.0 0.7 0.0 0.0 0.0 0.0 0.0 0.0 0.0 0.0 0.0 0.0 0.0 0.0 0.0 0.2 0.0 0.0 0.0 0.0 0.0 0.2 0.0 0.0 0.0 0.0
0.0 0.0 0.0 0.0 0.0 0.0 0.0 0.0 0.0 0.0 0.0 0.0 0.0 0.0 0.0 0.0 0.0 0.0 0.0 0.0 0.0 0.0 1.6 0.0 0.0 0.0 0.0 0.0 0.0 0.0 0.0 0.0 0.0 0.0 0.0 0.3 0.0 0.0 0.0 0.0 0.0 0.0 0.0 0.0 0.0 0.0 0.0
0.0 0.0 0.0 0.0 0.0 0.0 0.0 0.0 0.0 0.0 0.0 0.0 0.0 0.0 0.0 0.0 0.0 0.0 0.0 0.0 0.0 0.0 3.6 0.0 0.0 0.0 0.0 0.0 0.0 0.0 0.0 0.0 0.0 0.0 0.6 0.7 0.0 0.2 0.0 0.0 0.0 0.4 0.0 0.0 0.1 0.6 0.9
0.0 0.0 0.0 0.0 0.0 0.0 0.0 0.0 0.0 0.0 0.0 0.0 0.0 0.0 0.0 0.0 0.0 0.0 0.0 0.0 0.0 0.0 4.7 0.0 0.0 0.0 0.0 0.0 0.0 0.0 0.0 0.0 0.0 0.0 1.4 1.6 0.0 2.2 0.8 0.0 0.0 0.2 0.0 0.0 0.0 0.1 0.2
0.0 0.0 0.0 0.0 0.0 0.0 0.0 0.0 0.0 0.0 0.0 0.0 0.0 0.0 0.0 0.0 0.0 0.0 0.0 0.0 0.0 5.9 3.4 0.0 0.1 1.0 0.0 0.0 0.0 0.0 0.0 0.0 0.0 0.0 0.0 0.3 0.0 0.0 0.0 0.0 0.0 0.0 0.0 0.0 0.0 0.4 1.8
0.0 0.0 0.0 0.0 0.0 0.0 0.0 0.0 0.0 0.0 0.0 0.0 0.0 0.0 0.0 0.0 0.0 0.0 0.0 0.0 6.1 4.6 0.0 0.2 0.3 2.4 1.2 0.7 1.6 0.0 0.0 0.0 0.0 0.3 0.4 0.0 0.0 0.0 0.0 0.0 0.0 0.4 0.2 0.9 2.1 1.8 0.4
0.0 0.0 0.0 0.0 0.0 0.0 0.0 0.0 0.0 0.0 0.0 0.0 0.0 0.0 0.0 0.0 0.0 0.0 0.0 4.2 7.8 1.4 0.1 0.0 0.6 2.2 1.6 1.6 2.1 0.0 0.0 0.0 0.0 0.0 0.0 0.4 1.7 0.0 0.0 0.0 0.8 0.0 0.1 0.0 2.9 1.5 1.0
0.0 0.0 0.0 0.0 0.0 0.0 0.0 0.0 0.0 0.0 0.0 0.0 0.0 0.0 0.0 0.0 0.0 0.0 0.5 9.5 1.7 1.4 0.0 0.0 0.0 0.7 1.0 0.8 4.0 5.1 3.7 0.5 0.0 0.0 1.9 1.2 1.4 0.0 0.0 0.0 0.0 0.2 0.6 0.0 1.6 1.5 2.2
0.0 0.0 0.0 0.0 0.0 0.0 0.0 0.0 0.0 0.0 0.0 0.0 0.0 0.0 0.0 0.0 0.0 0.0 8.5 5.8 0.0 0.1 0.0 0.0 0.0 0.1 1.0 0.8 1.2 6.9 3.1 1.6 0.1 0.0 0.0 0.7 0.9 0.0 0.0 0.0 0.0 0.0 0.0 0.3 0.9 4.2 2.9
0.0 0.0 0.0 0.0 0.0 0.0 0.0 0.0 0.0 0.0 0.0 0.0 0.0 1.9 0.0 0.0 0.0 0.0 14.5 2.1 0.0 0.0 0.0 0.0 0.1 0.4 0.1 0.5 0.4 3.4 3.4 2.0 0.0 0.0 0.0 0.0 1.3 0.3 0.0 2.0 0.0 0.3 0.4 0.7 1.6 1.8 3.6
0.0 0.0 0.0 0.0 0.0 0.0 0.0 0.0 0.0 0.0 0.0 0.0 0.0 14.1 0.0 0.0 11.8 11.8 4.7 0.2 0.0 0.0 0.0 0.2 0.0 0.0 1.0 1.3 0.5 0.2 1.9 0.5 0.0 0.0 0.7 0.0 0.2 0.8 0.0 0.0 0.0 0.0 0.2 0.3 3.2 2.6 3.5
0.0 0.0 0.0 0.0 0.0 0.0 0.0 0.0 0.0 0.0 0.0 0.0 4.2 5.1 0.0 0.0 13.0 6.2 0.7 0.9 0.0 0.0 0.0 0.2 0.6 0.4 0.0 1.3 0.6 1.5 0.7 0.0 0.0 0.0 1.2 0.0 1.3 1.2 0.8 0.0 0.0 0.1 0.2 1.0 2.1 2.1 4.2
0.0 0.0 0.0 0.0 0.0 0.0 0.0 0.0 0.0 0.0 0.0 0.0 0.1 30.7 0.0 0.0 0.9 1.7 2.2 1.5 2.1 0.0 0.0 0.0 0.1 0.0 0.1 0.3 0.2 0.2 1.4 0.0 0.0 0.0 0.0 0.0 0.9 4.5 4.8 5.7 3.5 1.3 0.2 0.2 0.7 4.8 7.2
0.0 0.0 0.0 0.0 0.0 0.0 0.0 0.0 0.0 0.0 0.0 0.0 11.8 20.7 0.0 26.2 14.1 1.2 1.6 1.6 1.9 2.5 0.0 0.0 0.8 0.4 0.5 2.2 1.3 2.6 1.3 1.3 0.0 0.0 0.0 0.0 2.3 1.2 0.2 0.8 6.1 4.1 0.7 0.6 1.9 0.9 3.0
0.0 0.0 0.0 0.0 0.0 0.0 0.0 0.0 0.0 0.0 0.0 0.0 44.8 10.8 1.4 0.9 0.2 3.7 3.1 2.5 0.6 1.8 2.7 2.2 1.6 0.2 0.9 2.0 1.7 1.6 1.8 1.4 1.1 0.0 0.0 0.0 3.6 0.7 0.2 0.2 2.6 2.9 0.5 0.3 0.6 1.3 2.9
0.0 0.0 0.0 0.0 0.0 0.0 0.0 0.0 0.0 0.0 0.0 0.0 0.0 0.0 0.0 2.7 4.6 9.1 5.3 2.3 1.9 0.3 0.0 0.1 0.0 3.0 2.7 1.2 0.0 0.0 0.0 0.0 0.0 0.4 1.0 2.0 5.5 7.5 5.3 0.2 5.6 8.3 7.3 4.9 2.4 2.1 2.4
0.0 0.0 0.0 0.0 0.0 0.0 0.0 0.0 0.0 0.0 0.0 0.0 0.0 0.0 10.9 15.2 3.8 3.6 0.4 0.2 1.5 1.6 1.9 0.0 0.0 3.0 0.0 0.0 0.0 0.0 0.0 0.0 0.0 0.0 0.0 1.9 5.8 12.1 8.7 6.1 20.2 7.3 4.8 5.9 8.6 5.6 6.7
0.0 0.0 0.0 0.0 0.0 0.0 0.0 0.0 0.0 0.0 0.0 0.0 0.0 0.0 4.3 20.4 4.6 6.6 3.8 3.1 1.8 2.3 4.4 2.5 0.0 0.0 0.0 0.0 6.4 10.5 9.8 4.4 2.1 0.0 0.0 0.0 2.4 16.4 21.7 16.5 4.5 1.4 0.0 0.8 2.2 2.6 1.9
0.0 0.0 0.0 0.0 0.0 0.0 0.0 0.0 0.0 0.0 0.0 0.0 0.0 0.0 0.5 19.5 11.6 0.0 4.0 3.5 5.2 5.6 5.6 4.4 0.0 0.0 0.0 7.6 12.1 17.1 13.1 3.6 4.0 3.2 0.0 0.0 0.3 10.6 24.0 21.2 10.0 1.8 0.0 0.0 0.7 5.1 2.5
0.0 0.0 0.0 0.0 0.0 0.0 0.0 0.0 0.0 0.0 0.0 0.0 0.0 0.0 0.0 32.4 0.0 0.0 1.8 3.9 0.0 2.0 4.5 4.2 1.0 0.0 0.0 12.1 14.0 15.4 9.8 0.6 5.1 5.5 3.9 3.8 8.8 13.9 9.7 20.3 6.0 0.0 0.0 0.0 7.2 8.8 0.5
0.0 0.0 0.0 0.0 0.0 0.0 0.0 0.0 0.0 0.0 0.0 0.0 0.0 0.0 0.0 22.8 5.9 0.0 0.0 1.1 1.2 0.7 5.4 5.9 8.6 11.3 10.1 12.2 13.7 18.7 12.3 5.6 3.2 3.4 7.4 3.8 9.5 11.0 12.3 17.9 12.7 0.0 0.0 2.4 2.7 0.6 0.6
0.0 0.0 0.0 0.0 0.0 0.0 0.0 0.0 0.0 0.0 0.0 0.0 0.0 0.0 0.0 2.3 8.7 0.0 0.0 0.0 0.0 0.0 0.0 0.1 1.7 2.5 2.4 9.1 9.2 8.5 15.1 11.0 6.5 7.2 0.0 10.0 4.3 8.7 6.7 8.1 2.0 0.3 1.5 1.2 0.6 0.3 0.5